When you browse on this site, cookies collect data to enhance your experience and personalize the content and advertising you see.
Visit our Privacy Policy to learn more. By continuing to use the site, you agree to this use of cookies and data.
  • In Österreich
  • Länderverzeichnis
  • Für 7 Tage
  • Wassertemperatur
  • Wetterkarte
  • News
  • Widgets
  • user-avatar
    Anmelden

    Stündliche Wetter Zorya

    Heute, 25 August, Sonntag

    Zeit Temperatur Niederschläge Wind Luftdruck Luftfeuchtigkeit
    00:00 +19°C° 0 mm 3 m/S 754 mmHg 62%
    01:00 +18°C° 0 mm 3 m/S 754 mmHg 62%
    02:00 +18°C° 0 mm 3 m/S 754 mmHg 68%
    03:00 +18°C° 0 mm 3 m/S 755 mmHg 67%
    04:00 +17°C° 0 mm 3 m/S 755 mmHg 67%
    05:00 +17°C° 0 mm 3 m/S 755 mmHg 66%
    06:00 +19°C° 0 mm 3 m/S 755 mmHg 59%
    07:00 +21°C° 0 mm 3 m/S 755 mmHg 53%
    08:00 +23°C° 0 mm 4 m/S 755 mmHg 45%
    09:00 +26°C° 0 mm 4 m/S 755 mmHg 40%
    10:00 +28°C° 0 mm 4 m/S 755 mmHg 36%
    11:00 +29°C° 0 mm 4 m/S 755 mmHg 31%
    12:00 +30°C° 0 mm 5 m/S 755 mmHg 29%
    13:00 +30°C° 0 mm 5 m/S 755 mmHg 27%
    14:00 +32°C° 0 mm 4 m/S 755 mmHg 24%
    15:00 +30°C° 0 mm 4 m/S 755 mmHg 27%
    16:00 +30°C° 0 mm 4 m/S 755 mmHg 30%
    17:00 +29°C° 0 mm 4 m/S 754 mmHg 33%
    18:00 +27°C° 0 mm 4 m/S 755 mmHg 41%
    19:00 +23°C° 0 mm 4 m/S 755 mmHg 50%
    20:00 +21°C° 0 mm 4 m/S 756 mmHg 58%
    21:00 +20°C° 0 mm 4 m/S 756 mmHg 63%
    22:00 +20°C° 0 mm 4 m/S 756 mmHg 67%
    23:00 +19°C° 0 mm 4 m/S 756 mmHg 72%

    Morgen, 26 August, Montag

    Zeit Temperatur Niederschläge Wind Luftdruck Luftfeuchtigkeit
    00:00 +18°C° 0 mm 3 m/S 756 mmHg 73%
    01:00 +18°C° 0 mm 3 m/S 756 mmHg 75%
    02:00 +17°C° 0 mm 3 m/S 756 mmHg 77%
    03:00 +17°C° 0 mm 3 m/S 756 mmHg 77%
    04:00 +16°C° 0 mm 3 m/S 756 mmHg 78%
    05:00 +16°C° 0 mm 3 m/S 756 mmHg 79%
    06:00 +18°C° 0 mm 3 m/S 757 mmHg 70%
    07:00 +20°C° 0 mm 4 m/S 757 mmHg 61%
    08:00 +22°C° 0 mm 4 m/S 757 mmHg 53%
    09:00 +25°C° 0 mm 4 m/S 757 mmHg 48%
    10:00 +26°C° 0 mm 4 m/S 757 mmHg 44%
    11:00 +27°C° 0 mm 4 m/S 757 mmHg 39%
    12:00 +28°C° 0 mm 4 m/S 757 mmHg 36%
    13:00 +29°C° 0 mm 4 m/S 757 mmHg 34%
    14:00 +29°C° 0 mm 3 m/S 756 mmHg 31%
    15:00 +29°C° 0 mm 3 m/S 756 mmHg 32%
    16:00 +28°C° 0 mm 3 m/S 756 mmHg 32%
    17:00 +28°C° 0 mm 3 m/S 755 mmHg 33%
    18:00 +25°C° 0 mm 3 m/S 755 mmHg 38%
    19:00 +22°C° 0 mm 3 m/S 756 mmHg 44%
    20:00 +20°C° 0 mm 3 m/S 756 mmHg 49%
    21:00 +19°C° 0 mm 3 m/S 756 mmHg 52%
    22:00 +18°C° 0 mm 3 m/S 756 mmHg 55%
    23:00 +17°C° 0 mm 3 m/S 755 mmHg 58%

    übermorgen, 27 August, Dienstag

    Zeit Temperatur Niederschläge Wind Luftdruck Luftfeuchtigkeit
    00:00 +17°C° 0 mm 3 m/S 755 mmHg 59%
    01:00 +16°C° 0 mm 2 m/S 755 mmHg 61%
    02:00 +16°C° 0 mm 2 m/S 755 mmHg 62%
    03:00 +15°C° 0 mm 2 m/S 755 mmHg 63%
    04:00 +15°C° 0 mm 2 m/S 755 mmHg 65%
    05:00 +14°C° 0 mm 2 m/S 755 mmHg 66%
    06:00 +17°C° 0 mm 2 m/S 755 mmHg 59%
    07:00 +19°C° 0 mm 2 m/S 755 mmHg 52%
    08:00 +23°C° 0 mm 2 m/S 755 mmHg 45%
    09:00 +24°C° 0 mm 3 m/S 755 mmHg 42%
    10:00 +25°C° 0 mm 3 m/S 755 mmHg 38%
    11:00 +27°C° 0 mm 3 m/S 754 mmHg 35%
    12:00 +27°C° 0 mm 4 m/S 754 mmHg 33%
    13:00 +28°C° 0 mm 4 m/S 754 mmHg 32%
    14:00 +28°C° 0 mm 4 m/S 754 mmHg 30%
    15:00 +28°C° 0 mm 4 m/S 753 mmHg 33%
    16:00 +27°C° 0 mm 4 m/S 753 mmHg 35%
    17:00 +27°C° 0 mm 4 m/S 753 mmHg 37%
    18:00 +25°C° 0 mm 4 m/S 753 mmHg 45%
    19:00 +21°C° 0 mm 3 m/S 753 mmHg 54%
    20:00 +19°C° 0 mm 3 m/S 753 mmHg 62%
    21:00 +19°C° 0 mm 3 m/S 753 mmHg 66%
    22:00 +18°C° 0 mm 2 m/S 753 mmHg 71%
    23:00 +18°C° 0 mm 2 m/S 753 mmHg 75%

    28 August, Mittwoch

    Zeit Temperatur Niederschläge Wind Luftdruck Luftfeuchtigkeit
    00:00 +18°C° 0 mm 2 m/S 753 mmHg 80%
    01:00 +17°C° 0 mm 3 m/S 753 mmHg 84%
    02:00 +17°C° 0 mm 3 m/S 753 mmHg 89%
    03:00 +16°C° 0 mm 3 m/S 753 mmHg 89%
    04:00 +16°C° 0 mm 3 m/S 753 mmHg 90%
    05:00 +14°C° 0 mm 3 m/S 753 mmHg 90%
    06:00 +17°C° 0 mm 3 m/S 753 mmHg 78%
    07:00 +19°C° 0 mm 4 m/S 754 mmHg 65%
    08:00 +21°C° 0 mm 5 m/S 754 mmHg 53%
    09:00 +22°C° 0 mm 5 m/S 754 mmHg 48%
    10:00 +25°C° 0 mm 5 m/S 754 mmHg 42%
    11:00 +26°C° 0 mm 5 m/S 754 mmHg 37%
    12:00 +26°C° 0 mm 5 m/S 753 mmHg 35%
    13:00 +27°C° 0 mm 5 m/S 753 mmHg 34%
    14:00 +27°C° 0 mm 5 m/S 753 mmHg 33%
    15:00 +26°C° 0 mm 5 m/S 753 mmHg 35%
    16:00 +25°C° 0 mm 5 m/S 753 mmHg 36%
    17:00 +25°C° 0 mm 5 m/S 753 mmHg 38%
    18:00 +21°C° 0 mm 5 m/S 753 mmHg 44%
    19:00 +19°C° 0 mm 4 m/S 754 mmHg 51%
    20:00 +17°C° 0 mm 4 m/S 754 mmHg 57%
    21:00 +15°C° 0 mm 4 m/S 754 mmHg 60%
    22:00 +14°C° 0 mm 4 m/S 755 mmHg 62%
    23:00 +13°C° 0 mm 4 m/S 755 mmHg 65%

    29 August, Donnerstag

    Zeit Temperatur Niederschläge Wind Luftdruck Luftfeuchtigkeit
    00:00 +13°C° 0 mm 4 m/S 755 mmHg 65%
    01:00 +12°C° 0 mm 3 m/S 755 mmHg 66%
    02:00 +11°C° 0 mm 3 m/S 755 mmHg 67%
    03:00 +10°C° 0 mm 3 m/S 755 mmHg 67%
    04:00 +9°C° 0 mm 3 m/S 755 mmHg 67%
    05:00 +9°C° 0 mm 3 m/S 756 mmHg 67%
    06:00 +11°C° 0 mm 3 m/S 756 mmHg 60%
    07:00 +13°C° 0 mm 4 m/S 756 mmHg 53%
    08:00 +15°C° 0 mm 4 m/S 756 mmHg 46%
    09:00 +17°C° 0 mm 4 m/S 756 mmHg 41%
    10:00 +18°C° 0 mm 4 m/S 756 mmHg 37%
    11:00 +20°C° 0 mm 5 m/S 756 mmHg 33%
    12:00 +21°C° 0 mm 5 m/S 756 mmHg 30%
    13:00 +22°C° 0 mm 4 m/S 755 mmHg 28%
    14:00 +23°C° 0 mm 4 m/S 755 mmHg 25%
    15:00 +22°C° 0 mm 4 m/S 755 mmHg 27%
    16:00 +21°C° 0 mm 4 m/S 755 mmHg 29%
    17:00 +21°C° 0 mm 4 m/S 755 mmHg 30%
    18:00 +19°C° 0 mm 4 m/S 755 mmHg 35%
    19:00 +17°C° 0 mm 3 m/S 755 mmHg 40%
    20:00 +16°C° 0 mm 3 m/S 755 mmHg 45%
    21:00 +14°C° 0 mm 3 m/S 755 mmHg 50%
    22:00 +13°C° 0 mm 3 m/S 755 mmHg 54%
    23:00 +13°C° 0 mm 3 m/S 755 mmHg 58%

    30 August, Freitag

    Zeit Temperatur Niederschläge Wind Luftdruck Luftfeuchtigkeit
    00:00 +12°C° 0 mm 3 m/S 755 mmHg 62%
    01:00 +12°C° 0 mm 3 m/S 755 mmHg 65%
    02:00 +11°C° 0 mm 3 m/S 755 mmHg 69%
    03:00 +11°C° 0 mm 3 m/S 755 mmHg 71%
    04:00 +10°C° 0 mm 2 m/S 755 mmHg 74%
    05:00 +10°C° 0 mm 2 m/S 755 mmHg 76%
    06:00 +12°C° 0 mm 3 m/S 755 mmHg 68%
    07:00 +16°C° 0 mm 3 m/S 755 mmHg 60%
    08:00 +18°C° 0 mm 3 m/S 755 mmHg 52%
    09:00 +20°C° 0 mm 3 m/S 755 mmHg 48%
    10:00 +22°C° 0 mm 4 m/S 755 mmHg 45%
    11:00 +23°C° 0 mm 5 m/S 755 mmHg 42%
    12:00 +25°C° 0 mm 5 m/S 755 mmHg 41%
    13:00 +25°C° 0 mm 5 m/S 755 mmHg 41%
    14:00 +26°C° 0 mm 5 m/S 754 mmHg 40%
    15:00 +25°C° 0 mm 5 m/S 754 mmHg 42%
    16:00 +25°C° 0 mm 5 m/S 754 mmHg 44%
    17:00 +23°C° 0 mm 5 m/S 754 mmHg 45%
    18:00 +21°C° 0 mm 4 m/S 754 mmHg 53%
    19:00 +19°C° 0 mm 3 m/S 754 mmHg 60%
    20:00 +17°C° 0 mm 3 m/S 754 mmHg 67%
    21:00 +16°C° 0 mm 3 m/S 755 mmHg 70%
    22:00 +14°C° 0 mm 3 m/S 755 mmHg 72%
    23:00 +14°C° 0 mm 3 m/S 755 mmHg 75%
    Mehr zeigen